Location: Barcelona
(41.3829°N, 2.1774°E)
Time: 20:53:11
(UTC+00:00)

ISS - Pass Details

Date: 09 July 2025
Orbit: 413 x 417 km, 51.6° (Epoch: 13 July)

Event Time Altitude Azimuth Distance (km) Brightness Sun altitude
Rises 01:36:53 0° 309° (NW) 2,359 0.2 -22.2°
Reaches altitude 10° 01:39:14 10° 324° (NW) 1,494 -0.6 -22.0°
Maximum altitude 01:42:04 25° 22° (NNE) 893 -1.3 -21.7°
Drops below altitude 10° 01:44:53 10° 79° (E) 1,492 -0.5 -21.5°
Sets 01:47:14 0° 93° (E) 2,354 0.4 -21.3°
